Flag for Greece Weather past 2 weeks in Keratsini, Greece

Now
52 °F

Clear.


Feels Like: 50 °F
Forecast: 53 / 64 °F
Wind: 6 mph from North

Location: Elefsis Airport

Current Time: Apr 19, 2015 at 6:12:42 AM

Latest Report: Apr 19, 2015 at 5:20 AM


Visibility: 10 mi

Pressure: 29.83 "Hg

Humidity: 82%

Dew point: 46 °F

Location of KeratsiniLocation

Historic Weather in Keratsini — Graph

°F

Keratsini temperature yesterday

Maximum temperature yesterday: 75 °F (at 5:50 PM)
Minimum temperature yesterday: 54 °F (at 4:50 AM)
Average temperature yesterday: 64 °F

Past Weeks' High & Low Weather Summary

 TemperatureHumidityPressure
High77 °F (Apr 17, 1:20 PM)88% (Apr 5, 9:20 PM)30.33 "Hg (Apr 5, 9:20 PM)
Low41 °F (Apr 9, 4:50 AM)20% (Apr 10, 4:20 PM)29.62 "Hg (Apr 6, 4:20 PM)
Average57 °F55%30.07 "Hg
* Reported Apr 4 4:20 AM — Apr 19 4:50 AM, Keratsini, Weather by CustomWeather, © 2015

Note: Actual official high and low records may vary slightly from our data, if they occured in-between our weather recording intervals... More about our weather records

Advertising

Keratsini weather history for previous 24 hours

 ConditionsComfort  
Time TempWeatherWind HumidityBarometerVisibility
4:50 AM
Sun, Apr 19
50 °FClear.3 mph88%29.83 "Hg10 mi
3:50 AM54 °FClear.6 mph82%29.86 "Hg10 mi
3:20 AM54 °FClear.5 mph88%29.86 "Hg10 mi
2:50 AM54 °FClear.6 mph82%29.86 "Hg10 mi
2:20 AM52 °FClear.5 mph88%29.86 "Hg10 mi
1:50 AM55 °FClear.3 mph82%29.86 "Hg10 mi
1:20 AM54 °FClear.3 mph82%29.86 "Hg10 mi
12:50 AM54 °FClear.5 mph82%29.89 "Hg10 mi
12:20 AM55 °FClear.3 mph77%29.89 "Hg10 mi
11:50 PM
Sat, Apr 18
57 °FClear.5 mph72%29.89 "Hg10 mi
11:20 PM55 °FClear.6 mph77%29.89 "Hg10 mi
10:50 PM57 °FClear.5 mph72%29.89 "Hg10 mi
10:20 PM57 °FClear.3 mph72%29.89 "Hg10 mi
9:50 PM59 °FClear.5 mph68%29.89 "Hg10 mi
9:20 PM59 °FClear.3 mph72%29.89 "Hg10 mi
8:50 PM61 °FSunny.5 mph68%29.89 "Hg10 mi
8:20 PM66 °FSunny.No wind52%29.89 "Hg10 mi
7:50 PM68 °FSunny.3 mph46%29.89 "Hg10 mi
7:20 PM70 °FSunny.5 mph43%29.89 "Hg10 mi
6:50 PM73 °FSunny.3 mph38%29.89 "Hg10 mi
6:20 PM73 °FSunny.5 mph38%29.89 "Hg10 mi
5:50 PM75 °FSunny.5 mph36%29.92 "Hg10 mi
4:50 PM73 °FSunny.5 mph36%29.92 "Hg10 mi
4:20 PM73 °FSunny.7 mph31%29.92 "Hg10 mi
3:50 PM73 °FSunny.7 mph31%29.95 "Hg10 mi
3:20 PM72 °FSunny.6 mph36%29.98 "Hg10 mi
2:50 PM72 °FSunny.6 mph36%29.98 "Hg10 mi
2:20 PM70 °FSunny.7 mph38%29.98 "Hg10 mi
1:50 PM72 °FSunny.7 mph33%29.98 "Hg10 mi
1:20 PM72 °FSunny.7 mph31%30.01 "Hg10 mi
12:50 PM72 °FSunny.8 mph29%30.01 "Hg10 mi
12:20 PM73 °FSunny.9 mph27%30.01 "Hg10 mi
11:50 AM72 °FSunny.9 mph29%30.04 "Hg10 mi
11:20 AM72 °FSunny.9 mph31%30.04 "Hg10 mi
10:50 AM70 °FSunny.No wind35%30.04 "Hg10 mi
10:20 AM68 °FSunny.5 mph38%30.04 "Hg10 mi
9:50 AM66 °FSunny.5 mph40%30.04 "Hg10 mi
9:20 AM64 °FSunny.No wind52%30.04 "Hg10 mi
8:50 AM61 °FSunny.No wind59%30.04 "Hg10 mi
8:20 AM57 °FSunny.No wind67%30.04 "Hg10 mi
7:50 AM55 °FSunny.No wind67%30.04 "Hg10 mi
7:20 AM57 °FClear.No wind59%30.04 "Hg10 mi
6:50 AM54 °FPassing clouds.5 mph67%30.04 "HgN/A
6:20 AM54 °FPassing clouds.5 mph67%30.04 "HgN/A
Weather by CustomWeather, © 2015

See weather overviewHow to use our weather pages